Погода в Килии

Украина / Одесская область     45°27′01″N   29°15′57″E
темп.,
°C
ветер,
м/с
пор.,
м/с
влажн.,
%
обл.,
%
осадки,
мм/ч
давл.,
гПа
погр.,
м
5 марта, пт
пт523:00+8ююз46714 0.0 1013102
02:00+7юз347527 0.0 101375
05:00+6зюз347411 0.0 101253
08:00+7зсз35635 0.0 1012131
11:00+13зсз33464 0.0 1013533
14:00+16з56347 0.0 10121082
17:00+15з353951 0.0 1011251
20:00+11юз344958 0.0 101257
6 марта, сб
сб623:00+9ссз8147224 0.0 1014363
02:00+6ссз6117731 0.0 1017555
05:00+5с6107191 0.0 1019881
08:00+3с796895 0.0 1023937
11:00+5с7948100 0.0 10251278
14:00+6с6834100 0.0 10261731
17:00+5с572975 0.0 10271961
20:00+3ссв354037 0.0 1029112
7 марта, вс
вс723:00+2сз11430 0.0 103122
02:00+1сз34600 0.0 103194
05:00−1ссз23660 0.0 103053
08:00+1зюз11540 0.0 1030130
11:00+6зюз58400 0.0 10281445
14:00+8зюз68340 0.0 10251727
17:00+7зюз68360 0.0 10221538
20:00+4ю59580 0.0 1022242
8 марта, пн
пн823:00+3ююз48674 0.0 1021161
02:00+2ююз497646 0.0 1019219
05:00+1юз36790 0.0 1018123
08:00+2юз34750 0.0 1018220
11:00+6юз335133 0.0 1018639
14:00+9зюз343765 0.0 10161148
17:00+9зюз454167 0.0 10141436
20:00+5ю487356 0.0 1015216
9 марта, вт
вт923:00+4ю238053 0.0 101538
02:00+4з117049 0.0 101522
05:00+3с59778 0.0 1016203
08:00+3ссв610647 0.0 1018506
11:00+6ссв684811 0.0 1020923
14:00+7ссв563551 0.0 10191433
17:00+6ссв5539100 0.0 10191465
20:00+3ссв484595 0.0 1021284